Temperature
16 17 17 16 16 15 15 15 15 16 16 17 18 18 18 19 18 18 17 16 15 14 13 13 12 12 11 11 10 10 9 9 9 9 8 8 7 7 7 6 6 6 6 5
15 16 16 16 16 15 15 15 15 15 16 17 18 19 18 18 18 17 16 16 15 14 13 13 12 12 11 11 10 10 9 9 8 8 8 7 7 6 6 6 6 5 5 5
13 15 15 14 15 15 15 15 15 15 16 17 17 17 17 17 17 16 16 15 14 14 13 13 12 12 11 11 10 10 9 8 8 8 7 7 6 6 6 5 5 5 4 4
12 13 11 14 17 16 16 16 16 16 16 16 17 17 17 17 16 16 15 14 14 13 13 12 12 11 11 10 10 9 9 8 8 7 7 6 6 5 5 5 4 4 4 3
11 11 12 15 16 16 15 15 16 16 16 17 17 16 16 16 16 15 15 14 14 13 13 12 11 11 10 10 9 9 8 8 7 6 6 5 5 5 4 4 3 3 3 3
11 11 11 15 16 17 16 14 16 16 15 16 15 12 13 15 15 15 14 14 13 13 12 11 11 10 10 9 9 8 8 7 6 6 5 5 4 4 3 3 3 2 2 2
10 10 12 16 15 15 13 14 16 17 16 16 13 13 15 15 14 14 13 13 12 12 11 11 10 9 9 8 8 7 7 6 6 5 5 4 4 3 3 2 2 1 1 1
10 10 11 13 13 13 14 16 17 16 16 16 15 15 14 14 13 13 12 12 11 11 10 10 9 9 8 7 7 6 6 5 5 4 4 3 3 2 2 1 1 1 0 -0
12 13 15 15 15 16 16 16 16 16 15 15 14 14 13 13 12 12 11 11 10 10 9 9 8 8 7 7 6 6 5 5 4 4 3 3 2 1 1 0 0 -0 -1 -1
13 14 15 15 16 16 16 16 16 15 15 14 14 13 12 12 11 11 10 10 9 9 8 8 7 7 6 6 5 5 4 4 3 3 2 2 1 1 0 -0 -1 -1 -2 -2
12 14 14 15 15 15 15 15 15 14 14 14 13 12 12 11 10 10 9 9 8 8 7 7 6 6 5 5 5 4 4 3 2 2 1 1 0 -0 -1 -1 -2 -2 -3 -3
12 13 13 14 15 15 15 14 14 14 13 13 12 12 11 10 10 9 8 8 7 7 6 6 5 5 4 4 4 3 3 2 2 1 1 0 -1 -1 -2 -2 -3 -3 -3 -4
14 15 15 15 15 15 14 14 13 13 12 12 11 11 10 9 9 8 7 7 6 6 6 5 4 4 4 3 3 2 2 1 1 0 -0 -1 -2 -2 -3 -3 -3 -4 -4 -5
14 14 13 14 14 14 13 13 12 12 11 11 10 9 9 8 8 7 6 6 5 5 5 4 3 3 3 2 2 1 1 0 -0 -1 -2 -2 -3 -3 -4 -4 -5 -5 -5 -6
13 13 13 13 12 12 12 11 11 10 9 9 8 8 8 7 7 6 5 5 4 4 4 3 3 2 2 1 1 0 -0 -1 -1 -2 -3 -3 -4 -4 -5 -5 -6 -6 -6 -6
12 12 11 11 11 11 10 10 9 8 8 8 7 7 6 6 5 5 4 4 4 3 3 2 2 1 1 0 -0 -1 -1 -2 -2 -3 -4 -4 -5 -5 -6 -6 -6 -7 -7 -7
10 10 9 9 9 9 9 8 8 7 7 6 6 5 5 4 4 4 3 3 3 2 2 1 1 0 -0 -0 -1 -2 -2 -3 -3 -4 -5 -5 -6 -6 -7 -7 -7 -8 -8 -8
10 9 10 9 9 8 7 7 6 6 6 5 5 4 4 3 3 3 2 2 2 1 1 0 -0 -1 -1 -1 -2 -3 -3 -4 -4 -5 -6 -6 -6 -7 -7 -8 -8 -8 -8 -9
8 8 8 8 7 7 6 6 5 5 4 4 3 3 3 2 2 2 1 1 1 0 0 -1 -1 -1 -2 -2 -3 -4 -4 -5 -6 -6 -6 -7 -7 -8 -8 -8 -9 -9 -9 -9
6 6 6 6 6 5 5 4 4 4 3 3 2 2 1 1 1 1 0 0 -0 -1 -1 -2 -2 -2 -3 -3 -4 -5 -6 -6 -7 -7 -7 -8 -8 -8 -9 -9 -9 -9 -10 -10
4 4 4 4 4 3 3 3 3 2 2 1 1 1 1 0 -0 -0 -1 -1 -1 -2 -2 -3 -3 -3 -4 -5 -6 -6 -6 -7 -7 -8 -8 -8 -9 -9 -9 -9 -10 -10 -10 -11
3 2 2 2 2 2 1 1 1 1 1 0 0 0 -0 -1 -1 -1 -1 -2 -2 -3 -3 -4 -4 -4 -5 -6 -6 -7 -7 -7 -8 -8 -9 -9 -9 -10 -10 -10 -10 -11 -11 -11
1 1 1 1 1 0 0 0 -0 -0 -0 -0 -1 -1 -1 -2 -2 -2 -3 -3 -4 -4 -4 -5 -5 -6 -7 -7 -7 -7 -8 -8 -8 -9 -9 -10 -10 -10 -11 -11 -11 -11 -11 -11
-0 -0 -0 -0 -0 -1 -1 -1 -1 -1 -1 -2 -2 -2 -2 -3 -3 -3 -4 -4 -5 -5 -5 -6 -6 -7 -7 -7 -8 -8 -8 -9 -9 -9 -10 -10 -10 -11 -11 -11 -11 -11 -12 -12
-1 -1 -1 -2 -2 -2 -2 -2 -3 -3 -3 -3 -3 -3 -4 -4 -4 -5 -5 -5 -6 -6 -6 -7 -7 -7 -8 -8 -8 -8 -9 -9 -10 -10 -10 -10 -11 -11 -11 -11 -12 -12 -12 -12
-2 -2 -2 -3 -3 -3 -3 -3 -3 -3 -4 -4 -4 -4 -4 -5 -5 -5 -6 -6 -7 -7 -7 -7 -8 -8 -8 -8 -9 -9 -9 -10 -10 -10 -10 -11 -11 -11 -11 -11 -12 -12 -12 -12
-3 -3 -4 -4 -4 -4 -4 -4 -4 -4 -5 -5 -5 -5 -6 -6 -6 -6 -7 -7 -7 -8 -8 -8 -8 -9 -9 -9 -9 -10 -10 -10 -10 -10 -11 -11 -11 -11 -12 -12 -12 -12 -12 -12
Wind_Speed
10 5 4 9 11 14 16 16 12 13 14 12 9 6 4 3 2 1 2 3 4 4 3 3 4 5 5 5 5 5 6 6 6 6 5 5 5 6 5 6 6 6 6 6
11 9 7 9 12 14 17 16 17 16 18 13 9 6 5 4 2 2 3 3 4 4 4 4 4 4 5 5 5 5 5 5 5 5 5 5 5 5 5 5 5 6 7 7
8 9 7 11 14 15 14 13 14 18 18 11 10 8 5 4 3 4 4 4 4 4 4 4 3 4 4 4 4 5 5 4 5 5 5 5 5 5 5 6 6 6 7 7
4 5 11 10 8 12 15 16 15 13 12 10 9 5 4 5 6 5 4 4 4 4 3 3 3 3 3 4 4 5 4 4 4 5 5 5 5 5 5 5 5 6 7 7
5 7 9 8 8 9 11 13 13 14 13 10 4 3 6 6 5 4 3 3 3 4 4 3 3 4 5 4 4 4 4 4 4 4 4 5 5 5 5 4 5 6 6 6
6 7 8 6 6 6 5 9 10 11 10 7 4 4 6 2 4 4 4 3 3 3 3 3 3 5 5 4 4 4 4 3 3 3 4 4 5 5 4 4 5 5 6 6
9 8 8 5 6 9 7 8 5 6 6 6 8 8 5 5 4 4 4 4 4 4 3 3 4 5 4 4 3 3 3 2 2 2 3 4 4 4 4 4 5 5 7 7
9 8 10 6 9 10 8 3 3 4 5 5 6 4 4 4 5 5 4 4 4 4 3 3 4 4 4 3 3 3 3 2 2 2 2 2 3 4 4 4 5 6 6 7
10 11 5 11 10 8 4 4 4 4 4 5 5 5 5 5 5 5 5 5 4 5 4 3 3 4 4 3 3 3 2 2 2 2 2 3 3 4 4 4 5 5 6 7
8 9 7 8 7 6 6 6 5 5 5 5 6 6 5 5 5 5 4 4 4 5 5 3 3 3 3 3 3 3 2 2 2 2 3 3 3 3 4 4 5 6 6 7
10 8 6 8 9 9 7 6 4 4 5 6 6 6 6 5 5 5 4 4 5 5 4 4 3 3 3 3 3 2 2 2 2 2 3 3 4 4 5 5 6 7 6 7
10 8 8 8 8 8 7 7 7 6 5 4 5 6 5 5 5 5 5 5 4 4 4 4 4 3 3 2 2 2 2 2 2 2 3 3 4 5 7 9 14 15 15 15
9 6 6 5 5 6 6 6 5 6 6 5 4 5 6 5 5 5 5 5 5 5 4 4 3 3 2 2 2 1 2 2 2 3 3 4 4 5 7 9 13 15 17 19
6 5 7 7 6 6 5 5 5 4 4 4 4 5 5 5 5 6 5 5 5 5 4 3 3 2 2 2 1 1 2 4 4 4 4 4 5 6 6 8 9 8 11 18
8 7 7 5 4 5 5 6 6 5 4 4 5 6 6 6 6 5 5 5 5 4 3 3 2 1 1 1 1 2 3 3 3 4 4 5 5 6 7 8 9 9 8 10
8 6 5 5 6 6 6 7 6 6 6 6 5 6 6 6 6 5 5 5 4 3 2 2 2 1 1 0 1 2 3 7 7 5 5 5 6 7 7 8 9 9 9 8
6 7 6 6 6 6 6 6 6 6 6 6 6 7 7 7 6 5 4 3 3 2 2 2 2 1 0 1 2 2 3 5 9 7 5 6 7 7 8 8 9 10 9 12
6 6 7 7 7 7 6 6 7 7 7 6 7 7 7 6 5 4 3 3 2 1 1 1 1 0 1 2 2 2 3 4 4 6 6 6 8 7 8 8 9 11 10 12
4 4 4 5 6 7 7 7 7 7 7 7 7 6 5 5 4 4 3 2 2 1 1 1 2 2 2 3 5 3 4 5 6 7 7 11 11 8 8 9 10 10 10 10
5 6 7 7 7 7 8 8 8 8 7 7 7 6 5 4 4 3 2 1 2 2 1 1 1 2 2 3 6 3 5 6 7 7 7 7 8 9 9 9 10 10 10 10
7 8 9 9 9 8 8 8 8 8 6 6 6 6 5 3 2 2 2 1 1 0 1 3 2 2 3 5 7 4 5 7 7 7 8 8 9 9 9 10 10 11 11 11
7 8 9 9 10 9 7 7 8 8 7 6 6 5 4 3 2 1 0 1 1 2 2 1 2 5 7 9 5 5 6 7 7 7 7 8 9 9 10 11 11 11 11 11
8 8 9 9 9 9 9 8 7 7 6 5 5 4 3 2 1 0 2 1 1 4 4 3 6 10 12 7 5 6 7 7 7 8 8 8 9 10 10 12 11 11 11 11
9 9 8 8 9 9 8 6 6 5 5 4 3 3 2 1 1 1 0 3 5 6 4 7 11 12 12 5 5 6 7 7 8 8 9 9 9 10 10 11 11 11 12 13
9 8 8 8 8 6 6 6 6 5 4 3 3 2 2 1 0 1 1 2 5 7 4 7 11 12 8 5 6 7 7 8 10 10 9 9 10 10 11 11 11 12 12 13
7 7 6 6 5 5 4 4 3 3 3 3 2 2 2 2 1 1 2 3 4 7 6 5 6 8 6 6 7 8 8 10 11 10 10 10 11 12 12 12 13 13 13 13
7 6 6 6 5 4 4 3 3 2 2 2 2 2 2 2 2 2 3 3 4 5 5 5 6 6 7 7 8 8 8 9 9 10 10 10 11 11 12 13 13 13 13 13
Wind_Direction
246 244 203 211 214 215 221 229 239 249 254 261 270 273 272 265 247 216 198 189 191 199 211 205 195 188 185 188 184 179 180 187 192 186 182 182 185 186 187 192 201 205 212 219
243 239 240 246 232 222 225 233 243 258 264 265 277 281 281 279 256 240 239 213 196 193 201 206 197 187 183 182 177 169 178 186 181 179 182 186 189 189 193 200 206 211 218 222
234 231 249 247 228 226 227 226 230 244 253 264 271 269 266 272 261 245 234 209 193 194 195 192 185 177 181 173 159 162 176 180 179 180 186 189 188 191 202 209 214 222 225 227
217 204 233 239 216 216 227 235 229 238 252 251 253 258 256 248 244 243 221 196 184 177 172 168 160 156 152 145 152 166 179 186 185 185 191 191 195 206 215 217 221 228 233 235
193 221 255 242 218 206 216 241 230 238 248 251 245 306 281 247 215 203 187 162 155 150 150 152 156 149 143 154 160 172 188 192 187 185 193 198 207 217 222 227 235 237 239 243
200 214 233 228 188 168 175 256 234 225 234 230 175 238 253 186 143 144 129 125 130 128 132 142 145 136 144 164 167 186 188 181 176 185 199 209 217 225 230 232 240 244 248 247
212 226 251 229 157 132 183 237 203 194 206 199 200 214 200 156 149 149 145 141 136 135 142 145 137 137 155 165 180 170 144 147 177 202 212 220 227 232 237 243 248 252 256 257
202 219 238 180 157 183 210 185 178 188 198 204 205 185 168 165 160 155 152 149 145 143 140 129 130 140 158 173 154 126 130 160 200 219 224 228 233 244 243 243 252 259 263 267
202 217 214 175 191 204 191 202 212 206 205 191 197 200 193 185 177 173 167 161 151 146 139 135 138 145 160 157 125 123 141 191 222 232 237 238 238 246 253 251 254 262 264 271
231 229 211 202 212 213 208 210 210 203 198 189 201 203 194 184 179 173 165 159 150 146 152 157 144 136 146 137 132 142 181 217 227 239 252 252 249 243 249 252 259 265 269 275
236 237 228 224 222 227 225 213 212 210 201 198 198 202 193 184 178 170 161 153 148 156 161 159 143 138 134 134 135 162 203 225 241 249 257 264 262 253 258 250 256 269 268 268
231 219 217 227 213 214 214 215 211 203 203 200 193 192 180 175 166 156 152 146 147 152 153 152 144 140 137 136 148 174 211 237 247 259 266 269 278 289 283 279 285 285 285 286
235 234 230 232 225 210 210 208 196 191 192 191 182 170 162 156 148 143 145 150 157 157 153 149 145 146 145 140 146 186 224 248 259 263 267 271 275 281 291 296 290 289 290 291
230 220 234 231 224 202 189 179 163 156 157 157 152 140 136 134 134 139 147 149 142 139 141 143 144 152 141 126 137 224 253 268 271 263 266 270 272 276 280 287 294 289 287 290
231 223 219 204 190 174 157 145 146 155 150 140 134 136 139 141 142 140 132 128 126 131 139 141 148 165 125 122 181 250 262 264 267 268 271 274 277 280 281 282 286 290 291 292
219 212 199 190 187 176 164 164 167 170 156 146 138 135 133 131 130 127 126 129 137 155 163 160 186 200 132 156 256 266 268 281 288 282 279 281 281 281 283 284 287 290 291 293
197 208 204 203 197 187 177 170 164 158 148 144 140 131 126 125 123 123 121 118 125 145 164 180 203 196 195 258 263 266 271 285 294 292 281 279 279 280 282 284 286 288 288 292
203 205 195 188 185 175 159 145 138 136 137 135 129 129 132 136 141 139 130 114 105 104 203 188 166 61 279 274 273 269 277 281 281 280 281 281 285 282 282 283 285 287 290 294
167 162 149 140 138 137 135 131 127 123 123 126 128 130 128 127 127 129 125 128 157 220 241 175 317 319 287 286 301 278 280 284 287 285 285 289 293 287 285 285 286 287 290 292
112 109 106 102 102 111 118 119 119 119 119 120 119 117 114 113 115 120 124 183 229 215 201 274 308 284 281 285 302 284 283 284 285 287 287 286 286 287 286 287 288 289 291 291
107 104 104 105 102 100 106 113 118 117 114 115 119 121 120 115 117 128 141 242 271 123 12 319 315 289 291 295 303 291 286 285 285 285 286 287 289 289 290 290 291 293 292 292
107 109 108 108 105 97 92 96 103 106 104 102 103 110 113 112 102 65 267 228 245 318 340 307 292 294 301 305 295 287 286 286 286 286 286 287 289 290 291 291 292 292 291 291
103 104 104 104 105 101 91 89 92 98 101 103 107 111 115 117 123 175 300 294 337 319 323 294 298 303 307 309 294 289 287 287 287 287 287 286 286 287 289 290 290 290 289 289
97 96 97 98 99 98 95 87 85 87 91 91 97 108 113 94 13 353 307 318 321 316 312 302 308 308 313 310 295 291 289 288 287 287 286 286 285 286 287 288 288 288 288 287
97 98 99 100 99 100 99 95 90 89 87 86 82 73 67 77 339 326 330 316 313 318 310 309 311 312 313 297 292 289 289 287 288 290 288 290 290 289 289 288 288 288 289 288
94 93 90 90 96 101 102 100 95 89 85 80 63 52 43 35 23 344 328 315 308 313 313 304 302 305 299 292 291 291 290 294 296 294 290 290 289 289 289 288 287 287 287 287
89 90 90 86 81 82 85 88 91 84 78 78 46 19 9 358 347 337 325 317 313 310 306 302 299 297 295 294 294 293 293 292 291 291 290 290 289 289 289 288 289 288 288 286
Height
1461 1460 1462 1466 1468 1470 1473 1473 1477 1469 1466 1460 1457 1456 1456 1456 1456 1457 1457 1458 1458 1458 1458 1458 1458 1459 1459 1459 1460 1461 1462 1463 1464 1466 1468 1469 1470 1470 1471 1472 1472 1472 1472 1472
1462 1459 1459 1462 1462 1463 1465 1465 1465 1463 1459 1452 1452 1452 1452 1452 1453 1453 1454 1454 1454 1454 1455 1455 1455 1455 1455 1455 1456 1457 1458 1459 1460 1462 1463 1464 1464 1465 1465 1466 1466 1466 1466 1465
1465 1459 1460 1464 1456 1456 1456 1454 1457 1458 1451 1448 1449 1448 1448 1449 1449 1450 1450 1450 1450 1451 1451 1451 1451 1451 1451 1452 1452 1453 1454 1455 1456 1456 1457 1458 1459 1459 1459 1459 1459 1459 1459 1458
1463 1464 1474 1452 1439 1441 1445 1444 1445 1444 1442 1443 1443 1444 1444 1445 1445 1445 1446 1446 1446 1447 1447 1448 1448 1448 1448 1449 1449 1449 1450 1450 1451 1452 1452 1453 1454 1454 1454 1453 1453 1452 1452 1451
1465 1464 1455 1441 1436 1436 1440 1440 1436 1437 1436 1437 1438 1440 1440 1440 1440 1441 1442 1442 1443 1443 1444 1444 1444 1444 1445 1445 1445 1446 1446 1446 1447 1447 1448 1448 1448 1448 1448 1447 1447 1446 1446 1445
1459 1461 1457 1435 1428 1428 1434 1440 1429 1429 1430 1433 1435 1442 1438 1436 1437 1437 1438 1439 1439 1440 1440 1440 1440 1441 1441 1441 1442 1442 1442 1443 1443 1443 1443 1443 1443 1443 1442 1442 1441 1440 1439 1438
1453 1454 1441 1425 1424 1428 1443 1435 1423 1424 1426 1428 1430 1432 1432 1433 1433 1434 1434 1435 1435 1436 1436 1436 1437 1437 1437 1438 1438 1439 1439 1439 1439 1439 1439 1438 1438 1437 1437 1436 1434 1433 1432 1430
1445 1449 1440 1421 1423 1426 1424 1420 1420 1421 1422 1424 1426 1427 1428 1429 1429 1430 1430 1431 1431 1432 1432 1432 1433 1434 1434 1434 1435 1435 1435 1435 1435 1435 1434 1433 1433 1432 1431 1430 1428 1426 1424 1422
1424 1422 1413 1412 1413 1414 1416 1417 1418 1418 1420 1421 1422 1423 1424 1425 1425 1426 1427 1427 1427 1428 1428 1429 1430 1430 1430 1431 1431 1431 1431 1431 1431 1430 1429 1429 1428 1426 1425 1424 1422 1420 1417 1414
1412 1408 1407 1408 1409 1410 1412 1413 1414 1415 1416 1417 1418 1418 1419 1420 1421 1422 1422 1423 1423 1424 1424 1425 1426 1426 1427 1427 1427 1427 1427 1427 1426 1425 1424 1423 1422 1421 1420 1418 1416 1413 1411 1408
1405 1402 1403 1403 1404 1406 1408 1409 1410 1411 1412 1413 1413 1414 1415 1415 1416 1417 1418 1419 1419 1420 1421 1421 1422 1423 1423 1423 1423 1423 1423 1422 1422 1421 1419 1418 1416 1415 1414 1412 1411 1408 1405 1402
1398 1396 1399 1398 1400 1402 1403 1404 1405 1406 1407 1408 1409 1409 1410 1410 1412 1413 1414 1415 1416 1416 1417 1418 1418 1419 1420 1420 1420 1419 1418 1418 1417 1415 1414 1412 1410 1408 1406 1406 1403 1401 1398 1396
1389 1391 1392 1392 1394 1396 1397 1398 1399 1400 1401 1402 1403 1404 1405 1406 1407 1408 1410 1411 1412 1413 1414 1414 1415 1415 1416 1416 1416 1415 1414 1413 1411 1410 1408 1406 1404 1401 1398 1396 1395 1393 1391 1388
1384 1386 1386 1387 1388 1390 1391 1392 1394 1395 1396 1397 1398 1399 1401 1402 1403 1405 1406 1407 1409 1410 1410 1411 1412 1412 1412 1412 1411 1410 1409 1408 1406 1404 1402 1400 1398 1395 1392 1388 1385 1382 1381 1379
1378 1380 1380 1381 1383 1384 1385 1387 1388 1389 1391 1392 1394 1395 1396 1398 1399 1401 1403 1404 1406 1407 1407 1408 1408 1408 1408 1407 1406 1405 1404 1402 1400 1398 1396 1394 1392 1389 1386 1383 1379 1375 1372 1370
1372 1373 1374 1375 1376 1378 1380 1381 1383 1385 1386 1388 1390 1391 1393 1394 1396 1398 1400 1401 1402 1403 1404 1404 1404 1404 1403 1402 1401 1400 1398 1397 1395 1392 1390 1388 1385 1382 1379 1376 1373 1369 1365 1362
1365 1366 1368 1369 1371 1373 1375 1377 1379 1381 1383 1385 1386 1388 1390 1391 1393 1395 1397 1398 1399 1400 1400 1400 1400 1399 1399 1398 1396 1394 1392 1390 1389 1386 1384 1381 1379 1376 1373 1370 1366 1362 1358 1356
1358 1360 1362 1364 1366 1368 1370 1372 1375 1377 1379 1381 1383 1385 1387 1388 1390 1392 1393 1395 1395 1396 1396 1396 1395 1395 1394 1392 1391 1388 1386 1384 1382 1380 1377 1375 1372 1369 1366 1363 1359 1355 1351 1348
1352 1355 1357 1359 1362 1364 1366 1369 1371 1374 1377 1379 1381 1382 1384 1386 1388 1389 1390 1391 1391 1391 1392 1391 1391 1390 1388 1387 1385 1383 1381 1378 1376 1374 1371 1368 1366 1362 1359 1355 1352 1348 1344 1340
1348 1351 1354 1356 1359 1361 1363 1366 1369 1372 1374 1376 1378 1380 1382 1384 1385 1387 1387 1388 1388 1388 1387 1387 1386 1384 1383 1381 1379 1377 1375 1372 1370 1367 1364 1361 1358 1355 1351 1348 1344 1341 1337 1333
1346 1349 1351 1354 1357 1360 1362 1365 1367 1370 1372 1375 1376 1378 1380 1382 1383 1384 1384 1384 1385 1384 1383 1382 1381 1379 1377 1375 1373 1371 1369 1366 1363 1361 1357 1354 1351 1347 1344 1340 1337 1333 1329 1325
1346 1348 1351 1354 1356 1359 1362 1364 1367 1369 1371 1373 1375 1377 1378 1379 1381 1381 1381 1381 1380 1380 1378 1377 1376 1374 1372 1370 1368 1365 1363 1360 1357 1354 1351 1347 1344 1340 1336 1333 1329 1325 1321 1318
1346 1349 1351 1354 1356 1359 1361 1364 1367 1369 1370 1372 1374 1375 1376 1377 1378 1378 1377 1377 1376 1375 1374 1372 1370 1369 1367 1364 1362 1359 1356 1353 1350 1347 1344 1340 1337 1333 1329 1325 1321 1317 1313 1310
1347 1350 1352 1354 1357 1359 1361 1364 1366 1368 1370 1371 1373 1374 1374 1374 1374 1375 1374 1373 1372 1370 1369 1367 1365 1363 1361 1359 1356 1353 1350 1347 1343 1340 1337 1333 1329 1326 1322 1317 1313 1309 1305 1301
1349 1351 1353 1356 1357 1360 1362 1364 1366 1367 1369 1370 1371 1371 1372 1372 1371 1371 1370 1369 1367 1366 1364 1362 1360 1358 1356 1353 1350 1347 1344 1340 1337 1333 1330 1326 1322 1318 1314 1310 1306 1301 1297 1293
1351 1353 1355 1357 1359 1360 1362 1364 1365 1366 1367 1367 1368 1369 1369 1368 1368 1367 1366 1364 1363 1361 1359 1357 1355 1352 1350 1347 1344 1341 1337 1334 1330 1327 1323 1319 1315 1310 1306 1302 1297 1293 1288 1284
1353 1355 1356 1358 1360 1361 1362 1363 1364 1365 1366 1366 1366 1366 1366 1365 1364 1363 1362 1360 1359 1357 1355 1352 1350 1347 1344 1341 1338 1334 1331 1327 1324 1320 1316 1311 1307 1303 1298 1293 1289 1284 1280 1275